Terug naar catalogus

STARLINK-34999

ActiefCommunicatieVLEO
NORAD 65222·PAYLOAD·🇺🇸 United States

Gelanceerd Aug 14, 2025 vanaf Cape Canaveral Space Force Station

Loading…

Volgende Passages (komende 24 uur)

TLE

VersSource: CelesTrak SupGP

Epoch: Sep 14, 2026, 22:43 UTC

1 65222C 25176AA  26257.94701389 -.00007587  00000+0 -22422-3 0  2571
2 65222  53.1600 349.9916 0001198  80.4511  80.6253 15.34386922    11

Volg STARLINK-34999 in realtime met AllMySat

Download on the App Store